This demonstration page uses our WeatherBlox Daily Observations layout. Learn more.

Left ArrowRight Arrow

Hourly Observations for November 2, 2018

Temp ( °F °C ) Dew Point ( °F °C ) Humidity (%) Winds ( mph kmh ) Pressure ( in mb ) Visibility ( mi km ) Precip ( " mm )
12:53 am 00:53 Cloudy 36 2.2 28 -2.2 73 73 E 10 17 29.97 1015 10 16 N/A
1:53 am 01:53 Cloudy 36 2.2 29 -1.7 76 76 ENE 10 17 29.94 1014 10 16 N/A
2:53 am 02:53 Cloudy 35 1.7 30 -1.1 82 82 NE 8 13 29.91 1013 10 16 N/A
3:50 am 03:50 Cloudy with Light Rain 36 2 32 undefined 87 87 NE 7 11 29.88 1012 9 14 N/A
3:53 am 03:53 Cloudy 36 2.2 32 undefined 86 86 NE 8 13 29.87 1011 10 16 N/A
4:49 am 04:49 Cloudy with Light Rain 36 2 34 1 93 93 ENE 13 20 29.83 1010 8 13 0.02 0.51
4:53 am 04:53 Cloudy with Light Rain 36 2.2 34 1.1 93 93 ENE 13 20 29.82 1010 8 13 0.02 0.51
5:43 am 05:43 Cloudy with Light Rain 35 1.7 34 1.1 96 96 ENE 12 19 29.80 1009 7 11 0.01 0.25
5:51 am 05:51 Cloudy with Light Wintry Mix 34 1 34 1 100 100 ENE 10 17 29.80 1009 6 10 0.01 0.25
5:53 am 05:53 Cloudy with Light Wintry Mix 34 1.1 34 1.1 100 100 ENE 10 17 29.79 1009 6 10 0.01 0.25
6:53 am 06:53 Cloudy with Light Rain 34 1.1 33 0.6 97 97 E 12 19 29.76 1008 5 8 0.02 0.51
7:28 am 07:28 Cloudy with Light Wintry Mix 34 1.1 33 0.6 97 97 ENE 10 17 29.77 1008 6 10 0.01 0.25
7:41 am 07:41 Cloudy with Mist and Fog 34 1.1 34 1.1 100 100 E 10 17 29.74 1007 6 10 0.01 0.25
7:53 am 07:53 Cloudy 34 1.1 34 1.1 100 100 E 9 15 29.71 1006 7 11 0.01 0.25
8:29 am 08:29 Cloudy with Light Rain 35 1.7 35 1.7 100 100 ENE 10 17 29.71 1006 7 11 N/A
8:53 am 08:53 Cloudy with Light Rain 35 1.7 35 1.7 100 100 ENE 12 19 29.67 1005 5 8 0.01 0.25
9:37 am 09:37 Cloudy 35 1.7 35 1.7 100 100 ENE 10 17 29.68 1005 7 11 0.01 0.25
9:53 am 09:53 Cloudy with Light Rain 35 1.7 35 1.7 100 100 ENE 9 15 29.66 1004 6 10 0.01 0.25
10:53 am 10:53 Cloudy with Light Rain 36 2.2 36 2.2 100 100 E 8 13 29.62 1003 7 11 0.03 0.76
11:53 am 11:53 Cloudy with Light Rain 38 3.3 38 3.3 100 100 NE 3 6 29.61 1003 9 14 0.02 0.51
12:04 pm 12:04 Cloudy with Light Rain 39 4 37 3 93 93 ESE 5 7 29.62 1003 10 16 N/A
12:13 pm 12:13 Cloudy with Light Rain 39 3.9 38 3.3 96 96 ESE 6 9 29.59 1002 10 16 N/A
12:53 pm 12:53 Cloudy with Light Rain 39 3.9 39 3.9 100 100 ENE 3 6 29.57 1001 9 14 0.01 0.25
1:53 pm 13:53 Cloudy 41 5 40 4.4 96 96 N N/A 29.56 1001 10 16 N/A
2:53 pm 14:53 Cloudy 42 5.6 41 5 96 96 SSW 3 6 29.55 1001 10 16 N/A
3:53 pm 15:53 Cloudy with Light Rain 47 8.3 44 6.7 90 90 WNW 7 11 29.56 1001 10 16 N/A
4:53 pm 16:53 Cloudy 46 7.8 44 6.7 93 93 W 9 15 29.59 1002 10 16 0.01 0.25
5:53 pm 17:53 Mostly Cloudy 42 5.6 40 4.4 92 92 NW 23 37 29.66 1005 10 16 N/A
6:00 pm 18:00 Mostly Cloudy 41 5 40 4.4 96 96 NW 28 44 29.68 1005 10 16 N/A
6:53 pm 18:53 Cloudy 38 3.3 35 1.7 89 89 NW 24 39 29.74 1007 10 16 N/A
7:53 pm 19:53 Cloudy 37 2.8 34 1.1 89 89 NW 18 30 29.82 1010 10 16 N/A
8:16 pm 20:16 Cloudy 37 3 34 1 87 87 NW 23 37 29.83 1010 10 16 N/A
8:53 pm 20:53 Cloudy 36 2.2 32 undefined 86 86 NW 25 41 29.87 1012 10 16 N/A
9:37 pm 21:37 Mostly Cloudy 36 2.2 32 undefined 86 86 WNW 18 30 29.88 1012 10 16 N/A
9:53 pm 21:53 Mostly Cloudy 36 2.2 31 -0.6 82 82 WNW 12 19 29.91 1013 10 16 N/A
10:26 pm 22:26 Partly Cloudy 36 2 30 -1 81 81 WNW 22 35 29.94 1014 10 16 N/A
10:53 pm 22:53 Mostly Cloudy 35 1.7 31 -0.6 85 85 WNW 16 26 29.94 1014 10 16 N/A
11:06 pm 23:06 Mostly Cloudy 34 1.1 31 -0.6 89 89 WNW 17 28 29.97 1015 10 16 N/A
11:53 pm 23:53 Cloudy 35 1.7 31 -0.6 85 85 NW 17 28 29.97 1015 10 16 N/A

Powered by AerisWeather